Year,Month,Day,Hour,Minute,Value (Times are PST for insolation in W/m^2)
2019,04,17,00,00,0.00
2019,04,17,00,01,0.00
2019,04,17,00,02,0.00
2019,04,17,00,03,0.00
2019,04,17,00,04,0.00
2019,04,17,00,05,0.00
2019,04,17,00,06,0.00
2019,04,17,00,07,0.00
2019,04,17,00,08,0.00
2019,04,17,00,09,0.00
2019,04,17,00,10,0.00
2019,04,17,00,11,0.00
2019,04,17,00,12,0.00
2019,04,17,00,13,0.00
2019,04,17,00,14,0.00
2019,04,17,00,15,0.00
2019,04,17,00,16,0.00
2019,04,17,00,17,0.00
2019,04,17,00,18,0.00
2019,04,17,00,19,0.00
2019,04,17,00,20,0.00
2019,04,17,00,21,0.00
2019,04,17,00,22,0.00
2019,04,17,00,23,0.00
2019,04,17,00,24,0.00
2019,04,17,00,25,0.00
2019,04,17,00,26,0.00
2019,04,17,00,27,0.00
2019,04,17,00,28,0.00
2019,04,17,00,29,0.00
2019,04,17,00,30,0.00
2019,04,17,00,31,0.00
2019,04,17,00,32,0.00
2019,04,17,00,33,0.00
2019,04,17,00,34,0.00
2019,04,17,00,35,0.00
2019,04,17,00,36,0.00
2019,04,17,00,37,0.00
2019,04,17,00,38,0.00
2019,04,17,00,39,0.00
2019,04,17,00,40,0.00
2019,04,17,00,41,0.00
2019,04,17,00,42,0.00
2019,04,17,00,43,0.00
2019,04,17,00,44,0.00
2019,04,17,00,45,0.00
2019,04,17,00,46,0.00
2019,04,17,00,47,0.00
2019,04,17,00,48,0.00
2019,04,17,00,49,0.00
2019,04,17,00,50,0.00
2019,04,17,00,51,0.00
2019,04,17,00,52,0.00
2019,04,17,00,53,0.00
2019,04,17,00,54,0.00
2019,04,17,00,55,0.00
2019,04,17,00,56,0.00
2019,04,17,00,57,0.00
2019,04,17,00,58,0.00
2019,04,17,00,59,0.00
2019,04,17,01,00,0.00
2019,04,17,01,01,0.00
2019,04,17,01,02,0.00
2019,04,17,01,03,0.00
2019,04,17,01,04,0.00
2019,04,17,01,05,0.00
2019,04,17,01,06,0.00
2019,04,17,01,07,0.00
2019,04,17,01,08,0.00
2019,04,17,01,09,0.00
2019,04,17,01,10,0.00
2019,04,17,01,11,0.00
2019,04,17,01,12,0.00
2019,04,17,01,13,0.00
2019,04,17,01,14,0.00
2019,04,17,01,15,0.00
2019,04,17,01,16,0.00
2019,04,17,01,17,0.00
2019,04,17,01,18,0.00
2019,04,17,01,19,0.00
2019,04,17,01,20,0.00
2019,04,17,01,21,0.00
2019,04,17,01,22,0.00
2019,04,17,01,23,0.00
2019,04,17,01,24,0.00
2019,04,17,01,25,0.00
2019,04,17,01,26,0.00
2019,04,17,01,27,0.00
2019,04,17,01,28,0.00
2019,04,17,01,29,0.00
2019,04,17,01,30,0.00
2019,04,17,01,31,0.00
2019,04,17,01,32,0.00
2019,04,17,01,33,0.00
2019,04,17,01,34,0.00
2019,04,17,01,35,0.00
2019,04,17,01,36,0.00
2019,04,17,01,37,0.00
2019,04,17,01,38,0.00
2019,04,17,01,39,0.00
2019,04,17,01,40,0.00
2019,04,17,01,41,0.00
2019,04,17,01,42,0.00
2019,04,17,01,43,0.00
2019,04,17,01,44,0.00
2019,04,17,01,45,0.00
2019,04,17,01,46,0.00
2019,04,17,01,47,0.00
2019,04,17,01,48,0.00
2019,04,17,01,49,0.00
2019,04,17,01,50,0.00
2019,04,17,01,51,0.00
2019,04,17,01,52,0.00
2019,04,17,01,53,0.00
2019,04,17,01,54,0.00
2019,04,17,01,55,0.00
2019,04,17,01,56,0.00
2019,04,17,01,57,0.00
2019,04,17,01,58,0.00
2019,04,17,01,59,0.00
2019,04,17,02,00,0.00
2019,04,17,02,01,0.00
2019,04,17,02,02,0.00
2019,04,17,02,03,0.00
2019,04,17,02,04,0.00
2019,04,17,02,05,0.00
2019,04,17,02,06,0.00
2019,04,17,02,07,0.00
2019,04,17,02,08,0.00
2019,04,17,02,09,0.00
2019,04,17,02,10,0.00
2019,04,17,02,11,0.00
2019,04,17,02,12,0.00
2019,04,17,02,13,0.00
2019,04,17,02,14,0.00
2019,04,17,02,15,0.00
2019,04,17,02,16,0.00
2019,04,17,02,17,0.00
2019,04,17,02,18,0.00
2019,04,17,02,19,0.00
2019,04,17,02,20,0.00
2019,04,17,02,21,0.00
2019,04,17,02,22,0.00
2019,04,17,02,23,0.00
2019,04,17,02,24,0.00
2019,04,17,02,25,0.00
2019,04,17,02,26,0.00
2019,04,17,02,27,0.00
2019,04,17,02,28,0.00
2019,04,17,02,29,0.00
2019,04,17,02,30,0.00
2019,04,17,02,31,0.00
2019,04,17,02,32,0.00
2019,04,17,02,33,0.00
2019,04,17,02,34,0.00
2019,04,17,02,35,0.00
2019,04,17,02,36,0.00
2019,04,17,02,37,0.00
2019,04,17,02,38,0.00
2019,04,17,02,39,0.00
2019,04,17,02,40,0.00
2019,04,17,02,41,0.00
2019,04,17,02,42,0.00
2019,04,17,02,43,0.00
2019,04,17,02,44,0.00
2019,04,17,02,45,0.00
2019,04,17,02,46,0.00
2019,04,17,02,47,0.00
2019,04,17,02,48,0.00
2019,04,17,02,49,0.00
2019,04,17,02,50,0.00
2019,04,17,02,51,0.00
2019,04,17,02,52,0.00
2019,04,17,02,53,0.00
2019,04,17,02,54,0.00
2019,04,17,02,55,0.00
2019,04,17,02,56,0.00
2019,04,17,02,57,0.00
2019,04,17,02,58,0.00
2019,04,17,02,59,0.00
2019,04,17,03,00,0.00
2019,04,17,03,01,0.00
2019,04,17,03,02,0.00
2019,04,17,03,03,0.00
2019,04,17,03,04,0.00
2019,04,17,03,05,0.00
2019,04,17,03,06,0.00
2019,04,17,03,07,0.00
2019,04,17,03,08,0.00
2019,04,17,03,09,0.00
2019,04,17,03,10,0.00
2019,04,17,03,11,0.00
2019,04,17,03,12,0.00
2019,04,17,03,13,0.00
2019,04,17,03,14,0.00
2019,04,17,03,15,0.00
2019,04,17,03,16,0.00
2019,04,17,03,17,0.00
2019,04,17,03,18,0.00
2019,04,17,03,19,0.00
2019,04,17,03,20,0.00
2019,04,17,03,21,0.00
2019,04,17,03,22,0.00
2019,04,17,03,23,0.00
2019,04,17,03,24,0.00
2019,04,17,03,25,0.00
2019,04,17,03,26,0.00
2019,04,17,03,27,0.00
2019,04,17,03,28,0.00
2019,04,17,03,29,0.00
2019,04,17,03,30,0.00
2019,04,17,03,31,0.00
2019,04,17,03,32,0.00
2019,04,17,03,33,0.00
2019,04,17,03,34,0.00
2019,04,17,03,35,0.00
2019,04,17,03,36,0.00
2019,04,17,03,37,0.00
2019,04,17,03,38,0.00
2019,04,17,03,39,0.00
2019,04,17,03,40,0.00
2019,04,17,03,41,0.00
2019,04,17,03,42,0.00
2019,04,17,03,43,0.00
2019,04,17,03,44,0.00
2019,04,17,03,45,0.00
2019,04,17,03,46,0.00
2019,04,17,03,47,0.00
2019,04,17,03,48,0.00
2019,04,17,03,49,0.00
2019,04,17,03,50,0.00
2019,04,17,03,51,0.00
2019,04,17,03,52,0.00
2019,04,17,03,53,0.00
2019,04,17,03,54,0.00
2019,04,17,03,55,0.00
2019,04,17,03,56,0.00
2019,04,17,03,57,0.00
2019,04,17,03,58,0.00
2019,04,17,03,59,0.00
2019,04,17,04,00,0.00
2019,04,17,04,01,0.00
2019,04,17,04,02,0.00
2019,04,17,04,03,0.00
2019,04,17,05,04,0.00
2019,04,17,05,05,0.00
2019,04,17,05,06,0.00
2019,04,17,05,07,0.00
2019,04,17,05,08,0.00
2019,04,17,05,09,0.00
2019,04,17,05,10,0.00
2019,04,17,05,11,0.00
2019,04,17,05,12,0.00
2019,04,17,05,13,0.00
2019,04,17,05,14,0.00
2019,04,17,05,15,0.00
2019,04,17,05,16,0.00
2019,04,17,05,17,0.00
2019,04,17,05,18,0.00
2019,04,17,05,19,0.00
2019,04,17,05,20,0.00
2019,04,17,05,21,0.00
2019,04,17,05,22,0.00
2019,04,17,05,23,0.00
2019,04,17,05,24,0.00
2019,04,17,05,25,0.00
2019,04,17,05,26,0.00
2019,04,17,05,27,0.00
2019,04,17,05,28,0.00
2019,04,17,05,29,0.00
2019,04,17,05,30,0.00
2019,04,17,05,31,0.00
2019,04,17,05,32,0.00
2019,04,17,05,33,0.00
2019,04,17,05,34,0.00
2019,04,17,05,35,0.00
2019,04,17,05,36,0.00
2019,04,17,05,37,0.00
2019,04,17,05,38,0.00
2019,04,17,05,39,0.00
2019,04,17,05,40,0.00
2019,04,17,05,41,0.00
2019,04,17,05,42,0.00
2019,04,17,05,43,0.00
2019,04,17,05,44,0.00
2019,04,17,05,45,0.00
2019,04,17,05,46,0.00
2019,04,17,05,47,0.00
2019,04,17,05,48,0.00
2019,04,17,05,49,0.00
2019,04,17,05,50,0.00
2019,04,17,05,51,0.00
2019,04,17,05,52,0.00
2019,04,17,05,53,0.00
2019,04,17,05,54,0.00
2019,04,17,05,55,0.00
2019,04,17,05,56,0.00
2019,04,17,05,57,0.00
2019,04,17,05,58,0.00
2019,04,17,05,59,0.00
2019,04,17,06,00,0.00
2019,04,17,06,01,0.00
2019,04,17,06,02,0.00
2019,04,17,06,03,0.00
2019,04,17,06,04,0.00
2019,04,17,06,05,0.00
2019,04,17,06,06,0.00
2019,04,17,06,07,0.00
2019,04,17,06,08,0.00
2019,04,17,06,09,0.00
2019,04,17,06,10,0.00
2019,04,17,06,11,0.00
2019,04,17,06,12,0.00
2019,04,17,06,13,0.00
2019,04,17,06,14,0.00
2019,04,17,06,15,0.00
2019,04,17,06,16,0.00
2019,04,17,06,17,0.00
2019,04,17,06,18,0.00
2019,04,17,06,19,0.00
2019,04,17,06,20,0.00
2019,04,17,06,21,0.00
2019,04,17,06,22,0.00
2019,04,17,06,23,0.00
2019,04,17,06,24,0.00
2019,04,17,06,25,1.80
2019,04,17,06,26,5.00
2019,04,17,06,27,5.00
2019,04,17,06,28,5.00
2019,04,17,06,29,5.00
2019,04,17,06,30,5.00
2019,04,17,06,31,5.00
2019,04,17,06,32,6.10
2019,04,17,06,33,7.00
2019,04,17,06,34,7.00
2019,04,17,06,35,7.00
2019,04,17,06,36,7.50
2019,04,17,06,37,9.00
2019,04,17,06,38,9.00
2019,04,17,06,39,9.00
2019,04,17,06,40,9.00
2019,04,17,06,41,10.90
2019,04,17,06,42,11.00
2019,04,17,06,43,11.00
2019,04,17,06,44,9.90
2019,04,17,06,45,9.00
2019,04,17,06,46,7.30
2019,04,17,06,47,7.00
2019,04,17,06,48,7.00
2019,04,17,06,49,7.90
2019,04,17,06,50,9.00
2019,04,17,06,51,9.00
2019,04,17,06,52,9.00
2019,04,17,06,53,9.30
2019,04,17,06,54,11.00
2019,04,17,06,55,11.40
2019,04,17,06,56,12.00
2019,04,17,06,57,11.20
2019,04,17,06,58,11.90
2019,04,17,06,59,12.00
2019,04,17,07,00,12.60
2019,04,17,07,01,14.00
2019,04,17,07,02,15.20
2019,04,17,07,03,16.00
2019,04,17,07,04,14.20
2019,04,17,07,05,13.60
2019,04,17,07,06,12.70
2019,04,17,07,07,14.00
2019,04,17,07,08,15.30
2019,04,17,07,09,17.60
2019,04,17,07,10,16.10
2019,04,17,07,11,15.60
2019,04,17,07,12,14.00
2019,04,17,07,13,14.00
2019,04,17,07,14,14.00
2019,04,17,07,15,14.00
2019,04,17,07,16,14.00
2019,04,17,07,17,14.00
2019,04,17,07,18,14.00
2019,04,17,07,19,14.00
2019,04,17,07,20,14.00
2019,04,17,07,21,14.00
2019,04,17,07,22,14.00
2019,04,17,07,23,15.20
2019,04,17,07,24,19.80
2019,04,17,07,25,22.20
2019,04,17,07,26,23.00
2019,04,17,07,27,21.30
2019,04,17,07,28,18.90
2019,04,17,07,29,18.30
2019,04,17,07,30,20.80
2019,04,17,07,31,26.00
2019,04,17,07,32,33.20
2019,04,17,07,33,39.50
2019,04,17,07,34,42.00
2019,04,17,07,35,42.60
2019,04,17,07,36,42.20
2019,04,17,07,37,40.00
2019,04,17,07,38,40.00
2019,04,17,07,39,40.00
2019,04,17,07,40,40.00
2019,04,17,07,41,38.20
2019,04,17,07,42,36.00
2019,04,17,07,43,38.90
2019,04,17,07,44,45.20
2019,04,17,07,45,52.70
2019,04,17,07,46,59.00
2019,04,17,07,47,64.40
2019,04,17,07,48,64.90
2019,04,17,07,49,70.20
2019,04,17,07,50,83.50
2019,04,17,07,51,91.20
2019,04,17,07,52,98.50
2019,04,17,07,53,99.30
2019,04,17,07,54,96.50
2019,04,17,07,55,96.30
2019,04,17,07,56,103.40
2019,04,17,07,57,115.20
2019,04,17,07,58,112.90
2019,04,17,07,59,107.40
2019,04,17,08,00,106.10
2019,04,17,08,01,112.80
2019,04,17,08,02,120.00
2019,04,17,08,03,135.10
2019,04,17,08,04,147.30
2019,04,17,08,05,150.20
2019,04,17,08,06,149.00
2019,04,17,08,07,151.70
2019,04,17,08,08,145.40
2019,04,17,08,09,129.20
2019,04,17,08,10,126.50
2019,04,17,08,11,136.70
2019,04,17,08,12,143.80
2019,04,17,08,13,138.50
2019,04,17,08,14,131.10
2019,04,17,08,15,131.10
2019,04,17,08,16,137.00
2019,04,17,08,17,148.20
2019,04,17,08,18,160.80
2019,04,17,08,19,150.50
2019,04,17,08,20,138.20
2019,04,17,08,21,133.80
2019,04,17,08,22,160.70
2019,04,17,08,23,186.00
2019,04,17,08,24,186.00
2019,04,17,08,25,186.00
2019,04,17,08,26,386.70
2019,04,17,08,27,416.40
2019,04,17,08,28,422.00
2019,04,17,08,29,422.00
2019,04,17,08,30,240.80
2019,04,17,08,31,140.50
2019,04,17,08,32,146.90
2019,04,17,08,33,174.80
2019,04,17,08,34,207.60
2019,04,17,08,35,213.00
2019,04,17,08,36,386.50
2019,04,17,08,37,480.00
2019,04,17,08,38,270.00
2019,04,17,08,39,270.10
2019,04,17,08,40,248.00
2019,04,17,08,41,248.00
2019,04,17,08,42,276.60
2019,04,17,08,43,308.80
2019,04,17,08,44,265.90
2019,04,17,08,45,257.00
2019,04,17,08,46,241.60
2019,04,17,08,47,234.10
2019,04,17,08,48,213.60
2019,04,17,08,49,199.80
2019,04,17,08,50,197.30
2019,04,17,08,51,200.50
2019,04,17,08,52,207.10
2019,04,17,08,53,212.70
2019,04,17,08,54,216.80
2019,04,17,08,55,216.30
2019,04,17,08,56,193.40
2019,04,17,08,57,172.50
2019,04,17,08,58,172.10
2019,04,17,08,59,185.60
2019,04,17,09,00,199.50
2019,04,17,09,01,203.80
2019,04,17,09,02,206.00
2019,04,17,09,03,203.60
2019,04,17,09,04,199.00
2019,04,17,09,05,197.80
2019,04,17,09,06,198.50
2019,04,17,09,07,202.20
2019,04,17,09,08,210.90
2019,04,17,09,09,192.60
2019,04,17,09,10,181.70
2019,04,17,09,11,218.80
2019,04,17,09,12,234.60
2019,04,17,09,13,240.60
2019,04,17,09,14,246.00
2019,04,17,09,15,263.70
2019,04,17,09,16,308.00
2019,04,17,09,17,357.10
2019,04,17,09,18,346.00
2019,04,17,09,19,279.90
2019,04,17,09,20,250.50
2019,04,17,09,21,239.40
2019,04,17,09,22,227.50
2019,04,17,09,23,206.60
2019,04,17,09,24,183.20
2019,04,17,09,25,155.50
2019,04,17,09,26,146.20
2019,04,17,09,27,137.40
2019,04,17,09,28,134.80
2019,04,17,09,29,140.40
2019,04,17,09,30,151.40
2019,04,17,09,31,174.20
2019,04,17,09,32,195.70
2019,04,17,09,33,205.80
2019,04,17,09,34,211.00
2019,04,17,09,35,208.10
2019,04,17,09,36,199.00
2019,04,17,09,37,196.10
2019,04,17,09,38,203.50
2019,04,17,09,39,206.60
2019,04,17,09,40,206.60
2019,04,17,09,41,209.80
2019,04,17,09,42,213.70
2019,04,17,09,43,222.60
2019,04,17,09,44,232.60
2019,04,17,09,45,234.90
2019,04,17,09,46,246.20
2019,04,17,09,47,245.50
2019,04,17,09,48,242.70
2019,04,17,09,49,236.80
2019,04,17,09,50,235.40
2019,04,17,09,51,233.10
2019,04,17,09,52,234.40
2019,04,17,09,53,241.20
2019,04,17,09,54,245.80
2019,04,17,09,55,245.60
2019,04,17,09,56,242.90
2019,04,17,09,57,239.90
2019,04,17,09,58,237.70
2019,04,17,09,59,237.00
2019,04,17,10,00,236.10
2019,04,17,10,01,235.20
2019,04,17,10,02,232.00
2019,04,17,10,03,234.20
2019,04,17,10,04,236.00
2019,04,17,10,05,236.00
2019,04,17,10,06,236.00
2019,04,17,10,07,236.00
2019,04,17,10,08,236.00
2019,04,17,10,09,234.90
2019,04,17,10,10,236.10
2019,04,17,10,11,236.20
2019,04,17,10,12,249.30
2019,04,17,10,13,250.80
2019,04,17,10,14,253.80
2019,04,17,10,15,257.90
2019,04,17,10,16,268.40
2019,04,17,10,17,278.00
2019,04,17,10,18,284.00
2019,04,17,10,19,292.20
2019,04,17,10,20,297.90
2019,04,17,10,21,300.20
2019,04,17,10,22,303.10
2019,04,17,10,23,311.90
2019,04,17,10,24,317.50
2019,04,17,10,25,315.90
2019,04,17,10,26,318.90
2019,04,17,10,27,318.80
2019,04,17,10,28,321.80
2019,04,17,10,29,331.20
2019,04,17,10,30,335.00
2019,04,17,10,31,343.40
2019,04,17,10,32,346.00
2019,04,17,10,33,342.80
2019,04,17,10,34,343.50
2019,04,17,10,35,343.20
2019,04,17,10,36,345.20
2019,04,17,10,37,343.50
2019,04,17,10,38,338.50
2019,04,17,10,39,334.10
2019,04,17,10,40,332.00
2019,04,17,10,41,335.60
2019,04,17,10,42,338.90
2019,04,17,10,43,351.80
2019,04,17,10,44,359.50
2019,04,17,10,45,365.30
2019,04,17,10,46,366.80
2019,04,17,10,47,376.20
2019,04,17,10,48,368.50
2019,04,17,10,49,365.10
2019,04,17,10,50,344.00
2019,04,17,10,51,332.00
2019,04,17,10,52,323.90
2019,04,17,10,53,320.00
2019,04,17,10,54,318.00
2019,04,17,10,55,318.80
2019,04,17,10,56,321.10
2019,04,17,10,57,324.10
2019,04,17,10,58,329.20
2019,04,17,10,59,338.80
2019,04,17,11,00,343.90
2019,04,17,11,01,346.00
2019,04,17,11,02,351.20
2019,04,17,11,03,361.40
2019,04,17,11,04,372.90
2019,04,17,11,05,385.80
2019,04,17,11,06,392.10
2019,04,17,11,07,399.80
2019,04,17,11,08,408.20
2019,04,17,11,09,406.10
2019,04,17,11,10,407.50
2019,04,17,11,11,410.20
2019,04,17,11,12,411.60
2019,04,17,11,13,414.00
2019,04,17,11,14,412.50
2019,04,17,11,15,411.00
2019,04,17,11,16,413.00
2019,04,17,11,17,418.50
2019,04,17,11,18,423.30
2019,04,17,11,19,423.60
2019,04,17,11,20,427.60
2019,04,17,11,21,427.40
2019,04,17,11,22,429.20
2019,04,17,11,23,432.00
2019,04,17,11,24,430.90
2019,04,17,11,25,428.00
2019,04,17,11,26,428.30
2019,04,17,11,27,431.50
2019,04,17,11,28,441.90
2019,04,17,11,29,445.80
2019,04,17,11,30,456.90
2019,04,17,11,31,463.10
2019,04,17,11,32,470.30
2019,04,17,11,33,478.90
2019,04,17,11,34,489.00
2019,04,17,11,35,481.50
2019,04,17,11,36,469.80
2019,04,17,11,37,468.60
2019,04,17,11,38,469.00
2019,04,17,11,39,464.80
2019,04,17,11,40,468.50
2019,04,17,11,41,474.30
2019,04,17,11,42,482.00
2019,04,17,11,43,499.00
2019,04,17,11,44,492.40
2019,04,17,11,45,479.00
2019,04,17,11,46,485.00
2019,04,17,11,47,485.60
2019,04,17,11,48,497.40
2019,04,17,11,49,522.60
2019,04,17,11,50,528.00
2019,04,17,11,51,524.00
2019,04,17,11,52,518.40
2019,04,17,11,53,531.70
2019,04,17,11,54,552.60
2019,04,17,11,55,562.80
2019,04,17,11,56,604.30
2019,04,17,11,57,577.10
2019,04,17,11,58,586.20
2019,04,17,11,59,627.80
2019,04,17,12,00,617.70
2019,04,17,12,01,701.00
2019,04,17,12,02,689.80
2019,04,17,12,03,680.80
2019,04,17,12,04,624.80
2019,04,17,12,05,635.50
2019,04,17,12,06,635.00
2019,04,17,12,07,602.00
2019,04,17,12,08,574.40
2019,04,17,12,09,598.80
2019,04,17,12,10,623.80
2019,04,17,12,11,622.00
2019,04,17,12,12,571.00
2019,04,17,12,13,1053.30
2019,04,17,12,14,1313.00
2019,04,17,12,15,1237.10
2019,04,17,12,16,577.90
2019,04,17,12,17,630.20
2019,04,17,12,18,616.80
2019,04,17,12,19,660.10
2019,04,17,12,20,727.40
2019,04,17,12,21,711.70
2019,04,17,12,22,559.00
2019,04,17,12,23,534.20
2019,04,17,12,24,532.80
2019,04,17,12,25,564.70
2019,04,17,12,26,559.10
2019,04,17,12,27,534.00
2019,04,17,12,28,528.90
2019,04,17,12,29,530.50
2019,04,17,12,30,516.60
2019,04,17,12,31,459.20
2019,04,17,12,32,421.40
2019,04,17,12,33,409.20
2019,04,17,12,34,415.40
2019,04,17,12,35,394.50
2019,04,17,12,36,395.80
2019,04,17,12,37,443.50
2019,04,17,12,38,476.90
2019,04,17,12,39,452.80
2019,04,17,12,40,527.00
2019,04,17,12,41,540.00
2019,04,17,12,42,540.00
2019,04,17,12,43,514.70
2019,04,17,12,44,508.00
2019,04,17,12,45,508.00
2019,04,17,12,46,508.00
2019,04,17,12,47,508.00
2019,04,17,12,48,508.00
2019,04,17,12,49,667.50
2019,04,17,12,50,766.70
2019,04,17,12,51,773.00
2019,04,17,12,52,760.80
2019,04,17,12,53,740.00
2019,04,17,12,54,509.00
2019,04,17,12,55,381.40
2019,04,17,12,56,403.10
2019,04,17,12,57,473.50
2019,04,17,12,58,499.80
2019,04,17,12,59,510.80
2019,04,17,13,00,563.50
2019,04,17,13,01,525.00
2019,04,17,13,02,508.80
2019,04,17,13,03,547.20
2019,04,17,13,04,467.90
2019,04,17,13,05,433.70
2019,04,17,13,06,417.30
2019,04,17,13,07,459.50
2019,04,17,13,08,468.00
2019,04,17,13,09,468.00
2019,04,17,13,10,468.00
2019,04,17,13,11,468.00
2019,04,17,13,12,468.00
2019,04,17,13,13,499.20
2019,04,17,13,14,1087.70
2019,04,17,13,15,1060.00
2019,04,17,13,16,1054.30
2019,04,17,13,17,1051.80
2019,04,17,13,18,1031.60
2019,04,17,13,19,1012.00
2019,04,17,13,20,996.90
2019,04,17,13,21,989.20
2019,04,17,13,22,983.50
2019,04,17,13,23,977.80
2019,04,17,13,24,971.20
2019,04,17,13,25,969.80
2019,04,17,13,26,965.00
2019,04,17,13,27,965.00
2019,04,17,13,28,968.50
2019,04,17,13,29,972.00
2019,04,17,13,30,969.80
2019,04,17,13,31,969.50
2019,04,17,13,32,982.80
2019,04,17,13,33,971.80
2019,04,17,13,34,942.80
2019,04,17,13,35,902.00
2019,04,17,13,36,923.00
2019,04,17,13,37,918.40
2019,04,17,13,38,906.90
2019,04,17,13,39,900.40
2019,04,17,13,40,896.30
2019,04,17,13,41,893.60
2019,04,17,13,42,893.00
2019,04,17,13,43,846.00
2019,04,17,13,44,890.10
2019,04,17,13,45,884.20
2019,04,17,13,46,876.80
2019,04,17,13,47,871.50
2019,04,17,13,48,865.80
2019,04,17,13,49,862.00
2019,04,17,13,50,857.30
2019,04,17,13,51,833.90
2019,04,17,13,52,835.60
2019,04,17,13,53,855.10
2019,04,17,13,54,853.20
2019,04,17,13,55,852.60
2019,04,17,13,56,850.30
2019,04,17,13,57,848.10
2019,04,17,13,58,847.00
2019,04,17,13,59,844.80
2019,04,17,14,00,842.10
2019,04,17,14,01,840.80
2019,04,17,14,02,842.70
2019,04,17,14,03,840.00
2019,04,17,14,04,838.00
2019,04,17,14,05,837.00
2019,04,17,14,06,833.10
2019,04,17,14,07,830.00
2019,04,17,14,08,829.30
2019,04,17,14,09,829.00
2019,04,17,14,10,830.70
2019,04,17,14,11,827.00
2019,04,17,14,12,825.80
2019,04,17,14,13,824.80
2019,04,17,14,14,827.20
2019,04,17,14,15,824.30
2019,04,17,14,16,821.60
2019,04,17,14,17,822.60
2019,04,17,14,18,821.00
2019,04,17,14,19,821.00
2019,04,17,14,20,821.00
2019,04,17,14,21,822.60
2019,04,17,14,22,819.10
2019,04,17,14,23,816.20
2019,04,17,14,24,814.00
2019,04,17,14,25,814.00
2019,04,17,14,26,814.00
2019,04,17,14,27,815.20
2019,04,17,14,28,813.10
2019,04,17,14,29,812.00
2019,04,17,14,30,810.30
2019,04,17,14,31,811.40
2019,04,17,14,32,806.70
2019,04,17,14,33,811.40
2019,04,17,14,34,816.30
2019,04,17,14,35,825.50
2019,04,17,14,36,833.60
2019,04,17,14,37,824.50
2019,04,17,14,38,813.80
2019,04,17,14,39,812.40
2019,04,17,14,40,810.30
2019,04,17,14,41,807.10
2019,04,17,14,42,805.40
2019,04,17,14,43,805.60
2019,04,17,14,44,801.60
2019,04,17,14,45,801.20
2019,04,17,14,46,807.20
2019,04,17,14,47,803.30
2019,04,17,14,48,799.20
2019,04,17,14,49,795.70
2019,04,17,14,50,792.00
2019,04,17,14,51,788.30
2019,04,17,14,52,788.80
2019,04,17,14,53,790.10
2019,04,17,14,54,800.00
2019,04,17,14,55,800.00
2019,04,17,14,56,795.50
2019,04,17,14,57,788.90
2019,04,17,14,58,784.60
2019,04,17,14,59,782.50
2019,04,17,15,00,786.50
2019,04,17,15,01,785.50
2019,04,17,15,02,775.40
2019,04,17,15,03,770.00
2019,04,17,15,04,766.00
2019,04,17,15,05,760.50
2019,04,17,15,06,755.00
2019,04,17,15,07,751.50
2019,04,17,15,08,751.60
2019,04,17,15,09,751.30
2019,04,17,15,10,749.10
2019,04,17,15,11,744.80
2019,04,17,15,12,743.40
2019,04,17,15,13,742.00
2019,04,17,15,14,743.20
2019,04,17,15,15,739.50
2019,04,17,15,16,738.00
2019,04,17,15,17,737.80
2019,04,17,15,18,735.70
2019,04,17,15,19,732.10
2019,04,17,15,20,729.80
2019,04,17,15,21,726.80
2019,04,17,15,22,726.00
2019,04,17,15,23,721.80
2019,04,17,15,24,720.30
2019,04,17,15,25,718.10
2019,04,17,15,26,717.00
2019,04,17,15,27,713.20
2019,04,17,15,28,708.40
2019,04,17,15,29,707.80
2019,04,17,15,30,707.00
2019,04,17,15,31,705.00
2019,04,17,15,32,701.70
2019,04,17,15,33,700.20
2019,04,17,15,34,699.90
2019,04,17,15,35,697.50
2019,04,17,15,36,696.70
2019,04,17,15,37,698.00
2019,04,17,15,38,698.00
2019,04,17,15,39,696.40
2019,04,17,15,40,694.00
2019,04,17,15,41,692.50
2019,04,17,15,42,689.40
2019,04,17,15,43,688.10
2019,04,17,15,44,687.60
2019,04,17,15,45,687.00
2019,04,17,15,46,686.00
2019,04,17,15,47,686.00
2019,04,17,15,48,686.00
2019,04,17,15,49,687.70
2019,04,17,15,50,691.70
2019,04,17,15,51,699.80
2019,04,17,15,52,715.00
2019,04,17,15,53,685.80
2019,04,17,15,54,598.50
2019,04,17,15,55,599.00
2019,04,17,15,56,599.00
2019,04,17,15,57,599.00
2019,04,17,15,58,565.60
2019,04,17,15,59,425.40
2019,04,17,16,00,411.00
2019,04,17,16,01,427.80
2019,04,17,16,02,442.00
2019,04,17,16,03,465.40
2019,04,17,16,04,536.00
2019,04,17,16,05,564.40
2019,04,17,16,06,626.00
2019,04,17,16,07,626.00
2019,04,17,16,08,626.00
2019,04,17,16,09,741.70
2019,04,17,16,10,763.00
2019,04,17,16,11,763.00
2019,04,17,16,12,625.50
2019,04,17,16,13,522.80
2019,04,17,16,14,527.00
2019,04,17,16,15,399.40
2019,04,17,16,16,387.60
2019,04,17,16,17,369.80
2019,04,17,16,18,347.00
2019,04,17,16,19,332.70
2019,04,17,16,20,323.90
2019,04,17,16,21,320.60
2019,04,17,16,22,311.80
2019,04,17,16,23,312.80
2019,04,17,16,24,318.00
2019,04,17,16,25,321.80
2019,04,17,16,26,315.40
2019,04,17,16,27,304.90
2019,04,17,16,28,297.80
2019,04,17,16,29,296.80
2019,04,17,16,30,297.70
2019,04,17,16,31,295.50
2019,04,17,16,32,295.00
2019,04,17,16,33,293.60
2019,04,17,16,34,291.40
2019,04,17,16,35,288.50
2019,04,17,16,36,287.00
2019,04,17,16,37,289.20
2019,04,17,16,38,285.40
2019,04,17,16,39,282.00
2019,04,17,16,40,278.60
2019,04,17,16,41,279.50
2019,04,17,16,42,289.80
2019,04,17,16,43,307.00
2019,04,17,16,44,327.70
2019,04,17,16,45,325.00
2019,04,17,16,46,318.40
2019,04,17,16,47,301.50
2019,04,17,16,48,290.80
2019,04,17,16,49,280.00
2019,04,17,16,50,276.90
2019,04,17,16,51,268.20
2019,04,17,16,52,271.40
2019,04,17,16,53,277.00
2019,04,17,16,54,297.10
2019,04,17,16,55,335.50
2019,04,17,16,56,353.90
2019,04,17,16,57,410.40
2019,04,17,16,58,354.00
2019,04,17,16,59,323.60
2019,04,17,17,00,303.60
2019,04,17,17,01,278.00
2019,04,17,17,02,269.00
2019,04,17,17,03,209.60
2019,04,17,17,04,181.40
2019,04,17,17,05,167.50
2019,04,17,17,06,163.60
2019,04,17,17,07,164.70
2019,04,17,17,08,162.80
2019,04,17,17,09,160.70
2019,04,17,17,10,156.60
2019,04,17,17,11,153.80
2019,04,17,17,12,147.80
2019,04,17,17,13,139.40
2019,04,17,17,14,133.10
2019,04,17,17,15,127.70
2019,04,17,17,16,126.00
2019,04,17,17,17,125.00
2019,04,17,17,18,125.00
2019,04,17,17,19,126.80
2019,04,17,17,20,128.50
2019,04,17,17,21,131.50
2019,04,17,17,22,134.50
2019,04,17,17,23,137.60
2019,04,17,17,24,140.60
2019,04,17,17,25,147.80
2019,04,17,17,26,147.90
2019,04,17,17,27,142.90
2019,04,17,17,28,138.80
2019,04,17,17,29,137.00
2019,04,17,17,30,140.20
2019,04,17,17,31,141.90
2019,04,17,17,32,140.00
2019,04,17,17,33,134.90
2019,04,17,17,34,128.10
2019,04,17,17,35,121.50
2019,04,17,17,36,116.60
2019,04,17,17,37,114.10
2019,04,17,17,38,114.00
2019,04,17,17,39,113.60
2019,04,17,17,40,111.80
2019,04,17,17,41,109.50
2019,04,17,17,42,109.00
2019,04,17,17,43,109.00
2019,04,17,17,44,109.00
2019,04,17,17,45,108.20
2019,04,17,17,46,108.10
2019,04,17,17,47,109.00
2019,04,17,17,48,107.20
2019,04,17,17,49,103.40
2019,04,17,17,50,98.50
2019,04,17,17,51,92.80
2019,04,17,17,52,87.50
2019,04,17,17,53,83.80
2019,04,17,17,54,82.90
2019,04,17,17,55,80.20
2019,04,17,17,56,76.70
2019,04,17,17,57,74.10
2019,04,17,17,58,70.80
2019,04,17,17,59,70.00
2019,04,17,18,00,69.10
2019,04,17,18,01,69.00
2019,04,17,18,02,68.30
2019,04,17,18,03,67.00
2019,04,17,18,04,65.80
2019,04,17,18,05,63.50
2019,04,17,18,06,62.90
2019,04,17,18,07,61.50
2019,04,17,18,08,59.30